This is the latest recevied weather packets stored in our database for station/object 9W2RUT-G. If no packets are shown the sender has not sent any weather packets the latest 10 day(s).
| Time | Temp. | Humidity | Pressure | Rain* | Wind** | Luminosity | Snow |
|---|---|---|---|---|---|---|---|
| 1777839339 | 32.78° C | 46% | 1012 hPa | - | - | - | - |
| 1777836692 | 32.22° C | 47% | 1012.7 hPa | - | - | - | - |
| 1777835736 | 32.22° C | 46% | 1012.8 hPa | - | - | - | - |
| 1777833068 | 32.22° C | 46% | 1013.1 hPa | - | - | - | - |
| 1777833034 | 32.22° C | 46% | 1013.1 hPa | - | - | - | - |
| 1777832166 | 32.22° C | 47% | 1013.1 hPa | - | - | - | - |
| 1777831233 | 32.22° C | 46% | 1013.2 hPa | - | - | - | - |
| 1777827632 | 32.78° C | 46% | 1013.8 hPa | - | - | - | - |
| 1777825831 | 32.22° C | 46% | 1014.3 hPa | - | - | - | - |
| 1777824931 | 32.22° C | 46% | 1014.6 hPa | - | - | - | - |
| 1777824084 | 30.56° C | 49% | 1014.6 hPa | - | - | - | - |
| 1777824030 | 30.56° C | 49% | 1014.6 hPa | - | - | - | - |
| 1777820451 | 32.22° C | 44% | 1014.3 hPa | - | - | - | - |
| 1777818650 | 32.22° C | 44% | 1014 hPa | - | - | - | - |
| 1777817749 | 32.22° C | 44% | 1013.9 hPa | - | - | - | - |
| 1777816849 | 32.22° C | 44% | 1013.6 hPa | - | - | - | - |
| 1777814148 | 32.22° C | 43% | 1012.8 hPa | - | - | - | - |
| 1777813248 | 31.67° C | 42% | 1012.8 hPa | - | - | - | - |
| 1777811448 | 31.67° C | 40% | 1012.4 hPa | - | - | - | - |
| 1777810545 | 31.11° C | 40% | 1011.9 hPa | - | - | - | - |
| 1777809698 | 30.56° C | 39% | 1011.6 hPa | - | - | - | - |
| 1777809644 | 30.56° C | 39% | 1011.6 hPa | - | - | - | - |
| 1777804242 | 26.11° C | 33% | 1010.9 hPa | - | - | - | - |
| 1777802442 | 25.56° C | 35% | 1010.9 hPa | - | - | - | - |
| 1777800641 | 25.56° C | 28% | 1010.7 hPa | - | - | - | - |
* Rain since midnight (hover to see other rain measurements)
** Current wind speed in m/s (hover to see current wind gust speed)